Regional Weather Roundup
Issued by NWS

Home | Current Version | Previous Version | Text Only | Print | Product List | Glossary On
Versions: 1 2 3 4 5 6 7 8 9 10 11 12 13 14 15 16 17 18 19 20 21 22 23 24 25 26 27 28 29 30 31 32 33 34 35 36 37 38 39 40 41 42 43 44 45 46 47 48 49 50
000
ASUS43 KMKX 291621
RWRWI

WISCONSIN REGIONAL WEATHER ROUNDUP
NATIONAL WEATHER SERVICE MILWAUKEE/SULLIVAN WI
1100 AM CDT SAT APR 29 2017

NOTE: "FAIR" INDICATES FEW OR NO CLOUDS BELOW 12,000 FEET WITH NO
SIGNIFICANT WEATHER AND/OR OBSTRUCTIONS TO VISIBILITY.

WIZ001-002-006>008-014>016-023>028-291700-
NORTHWEST WISCONSIN

CITY           SKY/WX    TMP DP  RH WIND       PRES   REMARKS
SUPERIOR ARPT  MOSUNNY   45  24  44 NE7       30.37S
ASHLAND        SUNNY     45  29  53 N10       30.36F
HAYWARD        SUNNY     46  22  38 N10       30.32F
SIREN          SUNNY     47  21  35 NE10      30.32F
CUMBERLAND     SUNNY     43  25  49 NE12G17   30.30F
RICE LAKE      SUNNY     45  25  44 N15       30.31F
CHETEK         SUNNY     45  24  43 NE9G17    30.31S
LADYSMITH      SUNNY     46  25  43 N15       30.30F
EAU CLAIRE     SUNNY     47  23  38 NE12G23   30.28F
MENOMONIE      SUNNY     47  23  38 N13       30.29F
NEW RICHMOND   SUNNY     46  22  37 NE6       30.30F
OSCEOLA        SUNNY     47  25  42 NE13      30.34F
$$

WIZ003>005-009-010-017-018-291700-
NORTH CENTRAL WISCONSIN

CITY           SKY/WX    TMP DP  RH WIND       PRES   REMARKS
MANITOWISH WTR SUNNY     41  21  45 NE10G16   30.31S
ARBOR VITAE    SUNNY     42  24  47 N10       30.28F
WOODRUFF       SUNNY     42  24  47 N10       30.28F
RHINELANDER    SUNNY     44  23  43 MISG      30.29S
EAGLE RIVER    SUNNY     42  20  41 NE14G21   30.28F
LAND O LAKES   SUNNY     41  20  43 NE9G18    30.31F
PHILLIPS       SUNNY     43  25  49 N9        30.28F
TOMAHAWK       SUNNY     43  23  46 N9G16     30.29S
MEDFORD        CLOUDY    42  25  50 NE7       30.28R
MERRILL        SUNNY     44  26  48 NE9       30.29F
$$

WIZ029-030-035-036-043>047-291700-
CENTRAL WISCONSIN

CITY           SKY/WX    TMP DP  RH WIND       PRES   REMARKS
WAUSAU         SUNNY     44  26  49 E9G17     30.27S
MOSINEE        MOSUNNY   45  37  76 NE16G22   30.28S
MARSHFIELD     CLOUDY    44  26  49 NE10G20   30.26F
STEVENS POINT  PTSUNNY   43  24  47 NE14      30.28S
WAUPACA        CLOUDY    47  27  45 NE12G18   30.28S
WAUTOMA        PTSUNNY   44  27  51 MISG      30.28S
WISC RAPIDS    MOSUNNY   45  25  45 NE12G20   30.28S
CAMP DOUGLAS   PTSUNNY   45  28  53 E10G18    30.26R
$$

WIZ011>013-019>022-031-037>040-048>050-291700-
NORTHEAST WISCONSIN

CITY           SKY/WX    TMP DP  RH WIND       PRES   REMARKS
ANTIGO         SUNNY     43  26  52 NE14      30.29R
SHAWANO        CLOUDY    46  29  51 NE12G18   30.30R
OCONTO         MOSUNNY   44  27  52 NE7       30.30R
STURGEON BAY   CLOUDY    42  28  57 N21       30.30R
GREEN BAY      MOSUNNY   43  32  65 NE15G24   30.30R
MANITOWOC      MOSUNNY   42  29  59 N15G22    30.29R
APPLETON       PTSUNNY   43  25  49 NE12G20   30.26R
CLINTONVILLE   PTSUNNY   45  27  49 NE15      30.29S
OSHKOSH        MOSUNNY   43  30  60 NE15G22   30.27R
$$

WIZ032>034-041-042-053>061-291700-
SOUTHWEST WISCONSIN

CITY           SKY/WX    TMP DP  RH WIND       PRES   REMARKS
LA CROSSE      CLOUDY    46  27  47 E9        30.26R
SPARTA         CLOUDY    44  27  50 NE10G16   30.28R
VIROQUA        CLOUDY    42  29  61 NE15      30.23S
BOSCOBEL       CLOUDY    46  29  51 E9        30.22F
PRAIRIE DU CHI CLOUDY    44  29  54 NE10G17   30.19S
PLATTEVILLE    PTSUNNY   45  36  70 NE18      30.15S
$$

WIZ056-057-062-063-064-067-068-291700-
SOUTH CENTRAL WISCONSIN

CITY           SKY/WX    TMP DP  RH WIND       PRES   REMARKS
REEDSBURG      CLOUDY    42  28  58 NE9G18    30.24F
BARABOO/DELLS  CLOUDY    42  29  59 NE14G20   30.23F
LONE ROCK      CLOUDY    45  30  55 NE12      30.22F
MINERAL POINT  PTSUNNY   45  34  65 NE17G28   30.16F
MADISON        CLOUDY    44  33  65 NE21G28   30.20F
MIDDLETON      CLOUDY    45  34  65 NE20      30.20F
WATERTOWN      CLOUDY    44  32  63 N14       30.21F
MONROE         CLOUDY    45  34  65 NE23G30   30.15R
JANESVILLE     SUNNY     46  34  61 NE12G23   30.17R
$$

WIZ051-052-058>065-066-070>072-291700-
SOUTHEAST WISCONSIN

CITY           SKY/WX    TMP DP  RH WIND       PRES   REMARKS
MILWAUKEE      CLOUDY    42  32  67 N21G35    30.22S
WAUKESHA       SUNNY     41  30  65 NE17G25   30.22S
MILWAUKEE/TIMM SUNNY     43  28  56 N21G28    30.24R
RACINE         CLOUDY    43  32  65 NE24G33   30.23R
KENOSHA        CLOUDY    43  33  68 NE22G30   30.20R
FOND DU LAC    MOSUNNY   45  30  55 NE14      30.27R
SHEBOYGAN      MOSUNNY   42  35  76 NE21      30.27R
WEST BEND      PTSUNNY   43  30  61 NE20G28   30.24R
JUNEAU         MOSUNNY   42  30  62 NE14G22   30.24F
$$

LSZ147-162-291700-
LAKE SUPERIOR

STATION/POSITION TIME  TEMP    WIND        PRES    WAVE
                       AIR SEA DIR/SP/G            HT/PER
                 (UTC) (F)     (DEG/KT/KT) (MB)    (FT/S)
DEVILS ISLAND    1600   37      40/  6/  7 1029.8R
SAXON HARBOR     1540   38     340/  6/  8 1028.1R
$$

LMZ867-665-643>646-291700-
LAKE MICHIGAN

STATION/POSITION TIME  TEMP    WIND        PRES    WAVE
                       AIR SEA DIR/SP/G            HT/PER
                 (UTC) (F)     (DEG/KT/KT) (MB)    (FT/S)
CHAMBERS ISLAND  1540   38      20/ 15/ 17 1025.7S
N MID LAKE BUOY  1550   36 37   30/  8/ 10 1027.2S   1/ 3
NORTHPORT PIER   1540   38     360/ 14/ 16 1025.7F
KEWAUNEE LAKESHO 1554   40      40/ 12/ 19 1025.6R
SHEBOYGAN LAKESH 1600   38      20/ 21/ 24 1025.6R
PORT WASHINGTON  1555   42      40/ 17/ 26 1025.4R
MILWAUKEE LAKESH 1600   40      20/ 22/ 27   N/A
S MID LAKE BUOY  1550   40 41   10/ 19/ 23 1022.3R   4/ 6
KENOSHA   LAKESH 1600   40      20/ 30/ 33 1022.4
$$

TC  - TEMPERATURE IN CELSIUS
VSB - VISIBILITY IN STATUTE MILES
WCI - WIND CHILL INDEX
HX  - HEAT INDEX





USA.gov is the U.S. government's official web portal to all federal, state and local government web resources and services.